#timestamp,LO_Frequency,Hit,StdDev 
1635080415.6,286046993.9,Y
1635080435.5,286047004.1,P
1635080455.3,286047005.1,N
1635080475.1,286047003.8,N
1635080495.9,286047003.0,N
1635080515.7,286047007.0,N
1635080535.5,286047004.6,N
1635080555.4,286047012.2,Y
1635080575.2,286047007.7,P
1635080595.1,286047006.7,N
1635080596.0,286047006.7,P
1635080615.8,286047007.1,Y
1635080635.6,286047002.5,P
1635080655.5,286046998.1,N
1635080675.3,286046999.6,N
1635080695.2,286047000.3,N
1635080715.9,286046999.9,N
1635080735.7,286047001.6,N
1635080755.6,286047005.4,N
1635080775.4,286047006.6,N
1635080795.2,286047004.4,N
1635080815.1,286047002.2,N
1635080816.0,286047002.2,N
1635080835.8,286047010.3,Y
1635080855.7,286047002.9,P
1635080875.5,286047002.4,P
1635080895.3,286047007.1,P
1635080945.2,286047003.6,E
1635080955.1,286047000.4,N
1635080975.9,286046998.9,P
1635080995.7,286046996.9,P
1635081015.6,286046999.2,N
1635081035.4,286046999.1,N
1635081055.2,286046995.1,Y
1635081075.1,286046997.8,P
1635081076.0,286046997.8,P
1635081095.8,286046995.3,P
1635081115.7,286046993.4,Y
1635081135.5,286046996.8,P
1635081155.3,286046997.2,P
1635081175.2,286046998.1,P
1635081195.0,286047001.0,N
1635081195.9,286047001.0,N
1635081215.7,286047003.5,N
1635081235.6,286047001.8,N
1635081255.4,286047000.3,N
1635081275.3,286046997.1,N
1635081295.1,286046994.2,N
1635081315.8,286046994.5,N
1635081335.7,286046994.3,N
1635081355.5,286046990.5,Y
1635081375.4,286046992.1,P
1635081395.2,286046993.2,N
1635081415.0,286046994.6,N
1635081415.9,286046994.6,N
1635081435.8,286046994.5,N
1635081455.6,286046992.7,Y
1635081475.4,286046999.0,P
1635081495.3,286047000.7,N
1635081515.1,286046999.5,N
1635081535.9,286046998.2,N
1635081555.7,286046999.4,N
1635081575.5,286046998.4,N
1635081595.4,286046997.5,N
1635081615.2,286046995.2,N
1635081635.0,286046996.6,N
1635081635.9,286046996.6,N
1635081655.8,286046997.1,N
1635081675.6,286047000.3,N
1635081695.5,286046997.5,N
1635081715.3,286046995.7,N
1635081735.1,286046991.7,Y
1635081755.9,286046995.2,P
1635081775.7,286046997.0,N
1635081795.6,286046997.5,N
1635081815.4,286046999.6,N
1635081835.2,286046997.7,N
1635081855.1,286046997.6,N
1635081856.0,286046997.6,N
1635081875.8,286046996.5,Y
1635081895.7,286047002.0,P
1635081915.5,286047004.5,N
1635081935.3,286047001.6,N
1635081955.2,286047000.3,N
1635081975.0,286047002.1,N
1635081975.9,286047002.1,N
1635081995.8,286047002.0,N
1635082015.6,286047003.8,N
1635082035.4,286047003.1,N
1635082055.3,286047000.6,N
1635082075.1,286046999.5,N
1635082095.8,286046995.0,N
1635082115.7,286046993.5,N
1635082135.5,286046994.2,N
1635082155.4,286046996.2,N
1635082175.2,286046995.9,N
1635082195.0,286046994.1,N
1635082195.9,286046994.1,N
1635082215.8,286046992.9,N
1635082235.6,286046990.6,N
1635082255.4,286046988.9,N
1635082275.3,286046989.7,N
1635082295.1,286046989.2,N
1635082315.9,286046989.2,N
1635082335.7,286046990.3,N
1635082355.5,286046999.5,N
1635082375.4,286047002.5,N
1635082395.2,286047005.9,N
1635082415.0,286047001.9,N
1635082416.0,286047001.9,N
1635082435.8,286046999.0,N
1635082455.6,286046996.7,N
1635082475.5,286046995.1,N
1635082495.3,286046992.3,N
1635082515.1,286046988.8,N
1635082535.9,286046985.5,N
1635082555.7,286046986.6,N
1635082575.6,286046986.5,N
1635082595.4,286046984.1,N
1635082615.2,286046985.7,N
1635082635.1,286046985.7,N
1635082636.0,286046985.7,N
1635082655.8,286046987.2,N
1635082675.6,286046988.7,N
1635082695.5,286046989.0,N
1635082715.3,286046990.5,N
1635082735.2,286046990.9,N
1635082755.9,286046991.3,N
1635082775.7,286046988.7,N
1635082795.6,286046989.9,N
1635082815.4,286046991.1,N
1635082835.2,286046988.9,N
1635082855.1,286046991.3,N
1635082856.0,286046991.3,N
1635082875.8,286046992.6,N
1635082895.7,286046994.5,N
1635082915.5,286046991.9,N
1635082935.3,286046990.7,N
1635082955.2,286046991.0,N
1635082975.0,286046991.5,N
1635082975.9,286046991.5,N
1635082995.8,286046988.1,Y
1635083015.6,286046995.3,P
1635083035.4,286046999.4,N
1635083055.3,286047000.9,N
1635083075.1,286046996.5,N
1635083095.8,286046997.1,N
1635083115.7,286046994.4,N
1635083135.5,286046994.3,N
1635083155.4,286046994.7,N
1635083175.2,286046998.0,N
1635083195.0,286046996.4,N
1635083195.9,286046996.4,N
1635083215.8,286046992.9,N
1635083235.6,286046991.1,Y
1635083255.5,286046995.3,P
1635083275.3,286046995.2,P
1635083295.1,286046994.3,P
1635083315.9,286046995.0,Y
1635083335.7,286047000.9,P
1635083355.5,286047000.1,N
1635083375.4,286047007.5,N
1635083395.2,286047005.9,N
1635083415.1,286047007.6,N
1635083416.0,286047007.6,N
1635083435.8,286047003.6,N
1635083455.6,286046999.7,N
1635083475.5,286047000.4,N
1635083495.3,286047001.5,N
1635083515.1,286047004.7,N
1635083535.9,286047004.0,N
1635083555.7,286047002.5,N
1635083575.6,286047001.5,N
1635083595.4,286047002.8,N
1635083615.2,286047000.0,N
1635083635.1,286046998.2,N
1635083636.0,286046998.2,N
1635083655.8,286047001.0,N
1635083675.6,286047000.1,N
1635083695.5,286047003.4,N
1635083715.3,286047004.3,N
1635083735.2,286047003.4,N
1635083755.9,286047003.3,N
1635083775.7,286047002.5,N
1635083795.6,286046999.9,N
1635083815.4,286047000.8,N
1635083835.2,286047000.1,N
1635083855.1,286046998.1,N
1635083856.0,286046998.1,N
1635083875.8,286046999.4,N
1635083895.7,286047001.6,N
1635083915.5,286047000.2,N
1635083935.3,286047005.3,N
1635083955.2,286047004.0,N
1635083975.0,286047005.1,N
1635083975.9,286047005.1,N
1635083995.8,286047006.3,N
